When you browse on this site, cookies collect data to enhance your experience and personalize the content and advertising you see.
Visit our Privacy Policy to learn more. By continuing to use the site, you agree to this use of cookies and data.
  • în România
  • Lista ţărilor
  • Pe 7 zile
  • Temperatura apei
  • Hartă satelitară
  • Meteo pe hartă
  • Widget-uri
  • user-avatar
    Intrare

    Meteo pe oră la Serovo

    Astăzi, 23 Iulie, Marţi

    Timp Temperatura Precipitaţii Vânt Presiune Umiditate
    00:00 +16°C° 0 mm 1 m/s 741 mmHg 89%
    01:00 +16°C° 0 mm 1 m/s 741 mmHg 91%
    02:00 +15°C° 0 mm 1 m/s 741 mmHg 93%
    03:00 +15°C° 0 mm 1 m/s 741 mmHg 92%
    04:00 +15°C° 0 mm 1 m/s 741 mmHg 92%
    05:00 +15°C° 0 mm 1 m/s 740 mmHg 91%
    06:00 +17°C° 0.1 mm 2 m/s 740 mmHg 88%
    07:00 +18°C° 0.1 mm 2 m/s 740 mmHg 85%
    08:00 +19°C° 0.1 mm 2 m/s 740 mmHg 81%
    09:00 +20°C° 0.3 mm 2 m/s 741 mmHg 77%
    10:00 +21°C° 0.3 mm 2 m/s 741 mmHg 73%
    11:00 +22°C° 0.3 mm 3 m/s 741 mmHg 69%
    12:00 +22°C° 0.5 mm 3 m/s 741 mmHg 69%
    13:00 +23°C° 0.5 mm 2 m/s 741 mmHg 69%
    14:00 +24°C° 0.5 mm 2 m/s 741 mmHg 69%
    15:00 +23°C° 0.4 mm 2 m/s 741 mmHg 72%
    16:00 +23°C° 0.4 mm 2 m/s 741 mmHg 76%
    17:00 +23°C° 0.4 mm 2 m/s 741 mmHg 79%
    18:00 +20°C° 0.2 mm 2 m/s 741 mmHg 83%
    19:00 +19°C° 0.2 mm 2 m/s 741 mmHg 87%
    20:00 +17°C° 0.2 mm 2 m/s 741 mmHg 91%
    21:00 +16°C° 0 mm 2 m/s 741 mmHg 91%
    22:00 +15°C° 0 mm 2 m/s 741 mmHg 92%
    23:00 +15°C° 0 mm 2 m/s 742 mmHg 93%

    Mâine, 24 Iulie, Miercuri

    Timp Temperatura Precipitaţii Vânt Presiune Umiditate
    00:00 +14°C° 0 mm 2 m/s 742 mmHg 94%
    01:00 +14°C° 0 mm 2 m/s 742 mmHg 94%
    02:00 +13°C° 0 mm 2 m/s 742 mmHg 94%
    03:00 +13°C° 0 mm 2 m/s 742 mmHg 94%
    04:00 +13°C° 0 mm 2 m/s 742 mmHg 93%
    05:00 +13°C° 0 mm 2 m/s 742 mmHg 93%
    06:00 +15°C° 0 mm 2 m/s 742 mmHg 85%
    07:00 +17°C° 0 mm 2 m/s 742 mmHg 77%
    08:00 +18°C° 0 mm 3 m/s 743 mmHg 69%
    09:00 +20°C° 0 mm 3 m/s 743 mmHg 63%
    10:00 +21°C° 0 mm 3 m/s 743 mmHg 56%
    11:00 +22°C° 0 mm 4 m/s 743 mmHg 49%
    12:00 +23°C° 0 mm 4 m/s 743 mmHg 49%
    13:00 +23°C° 0 mm 5 m/s 743 mmHg 49%
    14:00 +23°C° 0 mm 5 m/s 743 mmHg 50%
    15:00 +22°C° 0 mm 5 m/s 743 mmHg 52%
    16:00 +21°C° 0 mm 5 m/s 743 mmHg 55%
    17:00 +21°C° 0 mm 5 m/s 743 mmHg 57%
    18:00 +19°C° 0 mm 4 m/s 743 mmHg 64%
    19:00 +17°C° 0 mm 3 m/s 743 mmHg 71%
    20:00 +15°C° 0 mm 2 m/s 743 mmHg 78%
    21:00 +15°C° 0 mm 2 m/s 743 mmHg 83%
    22:00 +14°C° 0 mm 2 m/s 743 mmHg 87%
    23:00 +13°C° 0 mm 2 m/s 743 mmHg 91%

    Poimâine, 25 Iulie, Joi

    Timp Temperatura Precipitaţii Vânt Presiune Umiditate
    00:00 +13°C° 0 mm 2 m/s 743 mmHg 91%
    01:00 +11°C° 0 mm 3 m/s 742 mmHg 91%
    02:00 +11°C° 0 mm 3 m/s 742 mmHg 91%
    03:00 +11°C° 0 mm 3 m/s 742 mmHg 92%
    04:00 +11°C° 0 mm 3 m/s 742 mmHg 93%
    05:00 +11°C° 0 mm 3 m/s 742 mmHg 93%
    06:00 +11°C° 0.7 mm 3 m/s 742 mmHg 95%
    07:00 +12°C° 0.7 mm 3 m/s 742 mmHg 96%
    08:00 +12°C° 0.7 mm 3 m/s 742 mmHg 97%
    09:00 +12°C° 1 mm 3 m/s 742 mmHg 97%
    10:00 +13°C° 1 mm 2 m/s 742 mmHg 97%
    11:00 +14°C° 1 mm 2 m/s 742 mmHg 98%
    12:00 +15°C° 0 mm 1 m/s 742 mmHg 92%
    13:00 +18°C° 0 mm 1 m/s 742 mmHg 86%
    14:00 +20°C° 0 mm 1 m/s 742 mmHg 80%
    15:00 +21°C° 0.1 mm 1 m/s 743 mmHg 78%
    16:00 +21°C° 0.1 mm 2 m/s 743 mmHg 77%
    17:00 +23°C° 0.1 mm 2 m/s 743 mmHg 75%
    18:00 +20°C° 0.3 mm 2 m/s 743 mmHg 82%
    19:00 +19°C° 0.3 mm 2 m/s 743 mmHg 88%
    20:00 +18°C° 0.3 mm 2 m/s 743 mmHg 95%
    21:00 +18°C° 0 mm 2 m/s 744 mmHg 96%
    22:00 +17°C° 0 mm 2 m/s 744 mmHg 97%
    23:00 +17°C° 0 mm 3 m/s 744 mmHg 97%

    26 Iulie, Vineri

    Timp Temperatura Precipitaţii Vânt Presiune Umiditate
    00:00 +17°C° 0 mm 3 m/s 745 mmHg 98%
    01:00 +17°C° 0 mm 3 m/s 745 mmHg 98%
    02:00 +17°C° 0 mm 2 m/s 745 mmHg 98%
    03:00 +17°C° 0 mm 3 m/s 745 mmHg 97%
    04:00 +17°C° 0 mm 3 m/s 745 mmHg 97%
    05:00 +17°C° 0 mm 3 m/s 746 mmHg 97%
    06:00 +18°C° 0 mm 3 m/s 746 mmHg 92%
    07:00 +19°C° 0 mm 4 m/s 746 mmHg 86%
    08:00 +20°C° 0 mm 4 m/s 746 mmHg 80%
    09:00 +22°C° 0 mm 4 m/s 747 mmHg 73%
    10:00 +25°C° 0 mm 4 m/s 747 mmHg 66%
    11:00 +26°C° 0 mm 4 m/s 747 mmHg 59%
    12:00 +27°C° 0 mm 4 m/s 747 mmHg 56%
    13:00 +28°C° 0 mm 4 m/s 746 mmHg 54%
    14:00 +28°C° 0 mm 4 m/s 746 mmHg 52%
    15:00 +28°C° 0 mm 3 m/s 746 mmHg 56%
    16:00 +28°C° 0 mm 3 m/s 746 mmHg 59%
    17:00 +28°C° 0 mm 2 m/s 746 mmHg 62%
    18:00 +26°C° 0.1 mm 2 m/s 746 mmHg 70%
    19:00 +24°C° 0.1 mm 2 m/s 746 mmHg 77%
    20:00 +21°C° 0.1 mm 2 m/s 746 mmHg 85%
    21:00 +20°C° 0 mm 2 m/s 746 mmHg 87%
    22:00 +19°C° 0 mm 2 m/s 746 mmHg 89%
    23:00 +19°C° 0 mm 2 m/s 746 mmHg 92%

    27 Iulie, Sâmbătă

    Timp Temperatura Precipitaţii Vânt Presiune Umiditate
    00:00 +18°C° 0 mm 2 m/s 746 mmHg 93%
    01:00 +18°C° 0 mm 2 m/s 746 mmHg 93%
    02:00 +17°C° 0 mm 2 m/s 746 mmHg 94%
    03:00 +17°C° 0 mm 2 m/s 746 mmHg 93%
    04:00 +18°C° 0 mm 1 m/s 746 mmHg 91%
    05:00 +18°C° 0 mm 1 m/s 746 mmHg 90%
    06:00 +20°C° 0 mm 1 m/s 746 mmHg 85%
    07:00 +21°C° 0 mm 2 m/s 746 mmHg 79%
    08:00 +24°C° 0 mm 2 m/s 746 mmHg 73%
    09:00 +25°C° 0 mm 2 m/s 746 mmHg 68%
    10:00 +27°C° 0 mm 2 m/s 746 mmHg 62%
    11:00 +28°C° 0 mm 3 m/s 746 mmHg 57%
    12:00 +28°C° 0.3 mm 3 m/s 745 mmHg 57%
    13:00 +29°C° 0.3 mm 3 m/s 745 mmHg 57%
    14:00 +29°C° 0.3 mm 4 m/s 745 mmHg 57%
    15:00 +28°C° 0 mm 3 m/s 744 mmHg 57%
    16:00 +28°C° 0 mm 3 m/s 744 mmHg 57%
    17:00 +28°C° 0 mm 3 m/s 744 mmHg 57%
    18:00 +26°C° 0 mm 3 m/s 744 mmHg 64%
    19:00 +24°C° 0 mm 2 m/s 743 mmHg 71%
    20:00 +21°C° 0 mm 2 m/s 743 mmHg 78%
    21:00 +20°C° 0 mm 2 m/s 743 mmHg 81%
    22:00 +19°C° 0 mm 2 m/s 743 mmHg 85%
    23:00 +18°C° 0 mm 2 m/s 743 mmHg 89%

    28 Iulie, Duminică

    Timp Temperatura Precipitaţii Vânt Presiune Umiditate
    00:00 +18°C° 0 mm 2 m/s 743 mmHg 89%
    01:00 +18°C° 0 mm 2 m/s 743 mmHg 90%
    02:00 +18°C° 0 mm 2 m/s 742 mmHg 91%
    03:00 +18°C° 0 mm 2 m/s 742 mmHg 92%
    04:00 +18°C° 0 mm 3 m/s 742 mmHg 93%
    05:00 +18°C° 0 mm 3 m/s 743 mmHg 94%
    06:00 +18°C° 0 mm 3 m/s 743 mmHg 89%
    07:00 +19°C° 0 mm 3 m/s 743 mmHg 84%
    08:00 +19°C° 0 mm 4 m/s 743 mmHg 79%
    09:00 +19°C° 0 mm 4 m/s 744 mmHg 75%
    10:00 +19°C° 0 mm 4 m/s 744 mmHg 71%
    11:00 +19°C° 0 mm 4 m/s 744 mmHg 66%
    12:00 +20°C° 0 mm 4 m/s 744 mmHg 61%
    13:00 +20°C° 0 mm 4 m/s 745 mmHg 57%
    14:00 +21°C° 0 mm 4 m/s 745 mmHg 52%
    15:00 +21°C° 0 mm 4 m/s 745 mmHg 49%
    16:00 +21°C° 0 mm 4 m/s 745 mmHg 47%
    17:00 +21°C° 0 mm 4 m/s 745 mmHg 45%
    18:00 +19°C° 0 mm 3 m/s 745 mmHg 53%
    19:00 +17°C° 0 mm 3 m/s 745 mmHg 61%
    20:00 +15°C° 0 mm 2 m/s 745 mmHg 69%
    21:00 +14°C° 0 mm 2 m/s 746 mmHg 71%
    22:00 +12°C° 0 mm 2 m/s 746 mmHg 72%
    23:00 +10°C° 0 mm 2 m/s 746 mmHg 74%
    Arată mai mult